CAPE
0 0 0 0 0 0 0 0 0 0 0 0 0 0 0 0 0 0 0 0 0 0 0 0 0 0 0 0 0 0 0 0 0 0 0 0 0 0 0 0 0 0 0
0 0 0 0 0 0 0 0 0 0 0 0 0 0 0 0 0 0 0 0 0 0 0 0 0 0 0 0 0 0 0 0 0 0 0 0 0 0 0 0 0 0 0
0 0 0 0 0 0 0 0 0 0 0 0 0 0 0 0 0 0 0 0 0 0 0 0 0 0 0 0 0 0 0 0 0 0 0 0 0 0 0 0 0 0 0
0 0 0 0 0 0 0 0 0 0 0 0 0 0 0 0 0 0 0 0 0 0 0 0 0 0 0 0 0 0 0 0 0 0 0 0 0 0 0 0 0 0 0
0 0 0 0 0 0 0 0 0 0 0 0 0 0 0 0 0 0 0 0 0 0 0 0 0 0 0 0 0 0 0 0 0 0 0 0 0 0 0 0 0 0 0
0 0 0 0 0 0 0 0 0 0 0 0 0 0 0 0 0 0 0 0 0 0 0 0 0 0 0 0 0 0 0 0 0 0 0 0 0 0 0 0 0 0 0
0 0 0 0 0 0 0 0 0 0 0 0 0 0 0 1 0 0 0 0 0 0 0 0 0 0 0 0 0 0 0 0 0 0 0 0 0 0 0 0 0 0 0
0 0 0 0 0 0 0 0 0 0 0 0 0 0 0 0 0 0 0 0 0 0 0 0 0 0 0 0 0 0 0 0 0 0 0 0 0 0 0 0 0 0 0
0 0 0 0 0 0 0 0 0 0 0 0 0 1 1 0 2 0 0 0 0 0 0 0 0 0 1 0 0 0 0 0 0 0 0 0 0 0 1 0 0 0 0
0 0 0 0 0 0 0 0 0 1 1 0 2 1 0 1 0 0 0 0 0 0 0 0 0 0 1 0 0 0 0 0 0 0 0 0 0 0 0 0 0 0 0
0 0 0 0 0 0 0 0 1 2 3 3 3 2 1 0 0 1 0 0 0 0 0 0 0 0 1 1 0 0 0 0 0 0 0 0 0 0 0 0 0 0 0
0 0 0 0 0 0 0 1 3 6 5 4 4 3 0 0 0 1 0 0 0 0 0 0 0 0 0 0 0 0 0 0 0 0 0 0 0 0 0 0 0 0 0
0 0 0 0 1 2 4 3 3 6 4 2 3 2 0 0 0 3 1 0 0 0 0 0 1 0 0 0 0 0 0 0 0 0 0 0 0 0 0 0 0 0 0
0 0 0 0 1 3 3 3 6 7 2 1 3 2 1 0 1 2 1 1 2 0 0 0 0 0 0 0 0 0 0 0 0 0 0 0 0 0 0 0 0 0 0
0 0 0 1 2 5 5 6 4 1 0 2 1 1 1 0 0 0 1 1 0 0 0 0 0 0 0 0 0 0 0 0 0 0 0 0 0 0 0 0 0 0 0
0 0 1 2 4 4 4 4 5 2 6 6 4 0 0 0 0 1 1 1 0 0 0 0 0 0 0 0 0 0 0 0 0 0 0 0 0 0 0 0 0 0 0
0 0 1 2 6 3 3 2 1 6 12 8 5 0 0 0 0 3 5 5 7 1 0 0 0 0 0 0 0 0 0 0 0 0 0 0 0 0 0 0 0 0 0
0 0 2 4 3 2 0 1 1 2 3 4 5 0 0 0 1 6 8 6 1 0 0 0 0 0 0 0 0 0 0 0 0 0 0 0 0 0 0 0 0 0 0
3 4 4 3 2 1 2 2 3 2 1 0 0 3 4 2 2 3 4 0 0 0 0 0 0 0 0 0 0 0 0 0 0 0 0 0 0 0 0 0 0 0 0
3 1 1 3 2 2 2 1 2 1 0 0 1 2 0 0 3 5 0 0 0 0 0 0 0 0 0 0 0 0 0 0 0 0 0 0 0 0 0 0 0 0 0
5 2 0 1 2 1 1 2 1 1 0 1 0 0 0 0 0 0 0 0 0 0 0 0 0 0 0 0 0 0 0 0 0 0 0 0 0 0 0 0 0 0 0
2 1 1 1 1 1 1 0 0 0 0 0 0 0 4 0 0 0 0 0 0 0 0 0 0 0 0 0 0 0 0 0 0 0 0 0 0 0 0 0 0 0 0
0 0 0 0 0 0 0 0 0 0 0 0 0 0 0 3 0 0 0 0 0 0 0 0 0 0 0 0 0 0 0 0 0 0 0 0 0 0 0 0 0 0 0
0 0 0 0 0 0 0 0 0 0 0 0 0 0 0 0 0 0 0 0 0 0 0 0 0 0 0 0 0 0 0 0 0 0 0 0 0 0 0 0 0 0 0
0 0 0 0 0 0 0 0 0 0 0 0 0 0 0 0 0 0 0 0 0 0 0 0 0 0 0 0 0 0 0 0 0 0 0 0 0 0 0 0 0 0 0
0 0 0 0 0 0 0 0 0 0 0 0 0 0 0 0 0 0 0 0 0 0 0 0 0 0 0 0 0 0 0 0 0 0 0 0 0 0 0 0 0 0 0
CIN
-0 -0 -0 -0 -0 -0 -0 -0 -0 -0 -0 -0 -0 -0 -0 -0 -0 -0 -0 -0 -0 -0 -0 -0 -0 -0 -0 -0 -0 -0 -0 -0 -0 -0 -0 -0 -0 -0 -0 -0 -0 -0 -0
-0 -0 -0 -0 -0 -0 -0 -0 -0 -0 -0 -0 -0 -0 -0 -0 -0 -0 -0 -0 -0 -0 -0 -0 -0 -0 -0 -0 -0 -0 -0 -0 -0 -0 -0 -0 -0 -0 -0 -0 -0 -0 -0
-0 -0 -0 -0 -0 -0 -0 -0 -0 -0 -0 -0 -0 -0 -0 -0 -0 -0 -0 -0 -0 -0 -0 -0 -0 -0 -0 -0 -0 -0 -0 -0 -0 -0 -0 -0 -0 -0 -0 -0 -0 -0 -0
-0 -0 -0 -0 -0 -0 -0 -0 -0 -0 -0 -0 -0 -0 -0 -0 -0 -0 -0 -0 -0 -0 -0 -0 -0 -0 -0 -0 -0 -0 -0 -0 -0 -0 -0 -0 -0 -0 -0 -0 -0 -0 -0
-0 -0 -0 -0 -0 -0 -0 -0 -0 -0 -0 -0 -0 -0 -0 -0 -0 -0 -0 -0 -0 -0 -0 -0 -0 -0 -0 -0 -0 -0 -0 -0 -0 -0 -0 -0 -0 -0 -0 -0 -0 -0 -0
-0 -0 -0 -0 -0 -0 -0 -0 -0 -0 -0 -0 -0 -0 -0 -0 -0 -0 -0 -0 -0 -0 -0 -0 -0 -0 -0 -0 -0 -0 -0 -0 -0 -0 -0 -0 -0 -0 -0 -0 -0 -0 -0
-0 -0 -0 -0 -0 -0 -0 -0 -0 -0 -0 -0 -0 -0 -0 -0 -0 -0 -0 -0 -0 -0 -0 -0 -0 -0 -0 -0 -0 -0 -0 -0 -0 -0 -0 -0 -0 -0 -0 -0 -0 -0 -0
-0 -0 -0 -0 -0 -0 -0 -0 -0 -0 -0 -0 -0 -0 -0 -0 -0 -0 -0 -0 -0 -0 -0 -0 -0 -0 -0 -0 -0 -0 -0 -0 -0 -0 -0 -0 -0 -0 -0 -0 -0 -0 -0
-0 -0 -0 -0 -0 -0 -0 -0 -0 -0 -0 -0 -0 -0 -0 -0 -0 -0 -0 -0 -0 -0 -0 -0 -0 -0 -0 -0 -0 -0 -0 -0 -0 -0 -0 -0 -0 -0 -0 -0 -0 -0 -0
-0 -0 -0 -0 -0 -0 -0 -0 -0 -0 -0 -0 -0 -0 -0 -0 -0 -0 -0 -0 -0 -0 -0 -0 -0 -0 -0 -0 -0 -0 -0 -0 -0 -0 -0 -0 -0 -0 -0 -0 -0 -0 -0
-0 -0 -0 -0 -0 -0 -0 -0 -0 -0 -0 -0 -0 -0 -0 -0 -0 -0 -0 -0 -0 -0 -0 -0 -0 -0 -0 -0 -0 -0 -0 -0 -0 -0 -0 -0 -0 -0 -0 -0 -0 -0 -0
-0 -0 -0 -0 -0 -0 -0 -0 -0 -0 -0 -0 -0 -0 -0 -0 -0 -0 -0 -0 -0 -0 -0 -0 -0 -0 -0 -0 -0 -0 -0 -0 -0 -0 -0 -0 -0 -0 -0 -0 -0 -0 -0
-0 -0 -0 -0 -0 -0 -0 -0 -0 -0 -0 -0 -0 -0 -0 -0 -0 -0 -0 -0 -0 -0 -0 -0 -0 -0 -0 -0 -0 -0 -0 -0 -0 -0 -0 -0 -0 -0 -0 -0 -0 -0 -0
-0 -0 -0 -0 -0 -0 -0 -0 -0 -0 -0 -0 -0 -0 -0 -0 -0 -0 -0 -0 -0 -0 -0 -0 -0 -0 -0 -0 -0 -0 -0 -0 -0 -0 -0 -0 -0 -0 -0 -0 -0 -0 -0
-0 -0 -0 -0 -0 -0 -0 -0 -0 -0 -0 -0 -0 -0 -0 -0 -0 -0 -0 -0 -0 -0 -0 -0 -0 -0 -0 -0 -0 -0 -0 -0 -0 -0 -0 -0 -0 -0 -0 -0 -0 -0 -0
-0 -0 -0 -0 -0 -0 -0 -0 -0 -0 -0 -0 -0 -0 -0 -0 -0 -0 -0 -0 -0 -0 -0 -0 -0 -0 -0 -0 -0 -0 -0 -0 -0 -0 -0 -0 -0 -0 -0 -0 -0 -0 -0
-0 -0 -0 -0 -0 -0 -0 -0 -0 -0 -0 -0 -0 -0 -0 -0 -0 -0 -0 -0 -0 -0 -0 -0 -0 -0 -0 -0 -0 -0 -0 -0 -0 -0 -0 -0 -0 -0 -0 -0 -0 -0 -0
-0 -0 -0 -0 -0 -0 -0 -0 -0 -0 -0 -0 -0 -0 -0 -0 -0 -0 -0 -0 -0 -0 -0 -0 -0 -0 -0 -0 -0 -0 -0 -0 -0 -0 -0 -0 -0 -0 -0 -0 -0 -0 -0
-0 -0 -0 -0 -0 -0 -0 -0 -0 -0 -0 -0 -0 -0 -0 -0 -0 -0 -0 -0 -0 -0 -0 -0 -0 -0 -0 -0 -0 -0 -0 -0 -0 -0 -0 -0 -0 -0 -0 -0 -0 -0 -0
-0 -0 -0 -0 -0 -0 -0 -0 -0 -0 -0 -0 -0 -0 -0 -0 -0 -0 -0 -0 -0 -0 -0 -0 -0 -0 -0 -0 -0 -0 -0 -0 -0 -0 -0 -0 -0 -0 -0 -0 -0 -0 -0
-0 -0 -0 -0 -0 -0 -0 -0 -0 -0 -0 -0 -0 -0 -0 -0 -0 -0 -0 -0 -0 -0 -0 -0 -0 -0 -0 -0 -0 -0 -0 -0 -0 -0 -0 -0 -0 -0 -0 -0 -0 -0 -0
-0 -0 -0 -0 -0 -0 -0 -0 -0 -0 -0 -0 -0 -0 -0 -0 -0 -0 -0 -0 -0 -0 -0 -0 -0 -0 -0 -0 -0 -0 -0 -0 -0 -0 -0 -0 -0 -0 -0 -0 -0 -0 -0
-0 -0 -0 -0 -0 -0 -0 -0 -0 -0 -0 -0 -0 -0 -0 -0 -0 -0 -0 -0 -0 -0 -0 -0 -0 -0 -0 -0 -0 -0 -0 -0 -0 -0 -0 -0 -0 -0 -0 -0 -0 -0 -0
-0 -0 -0 -0 -0 -0 -0 -0 -0 -0 -0 -0 -0 -0 -0 -0 -0 -0 -0 -0 -0 -0 -0 -0 -0 -0 -0 -0 -0 -0 -0 -0 -0 -0 -0 -0 -0 -0 -0 -0 -0 -0 -0
-0 -0 -0 -0 -0 -0 -0 -0 -0 -0 -0 -0 -0 -0 -0 -0 -0 -0 -0 -0 -0 -0 -0 -0 -0 -0 -0 -0 -0 -0 -0 -0 -0 -0 -0 -0 -0 -0 -0 -0 -0 -0 -0
-0 -0 -0 -0 -0 -0 -0 -0 -0 -0 -0 -0 -0 -0 -0 -0 -0 -0 -0 -0 -0 -0 -0 -0 -0 -0 -0 -0 -0 -0 -0 -0 -0 -0 -0 -0 -0 -0 -0 -0 -0 -0 -0
Wind_Speed
5 5 5 4 4 4 4 5 5 5 4 5 5 5 5 5 5 6 6 6 7 7 7 8 8 6 5 5 4 5 4 5 4 2 3 7 9 10 11 10 10 11 11
6 6 5 5 5 5 5 5 5 5 5 5 5 5 5 5 4 5 6 6 7 8 8 8 7 5 6 6 4 5 4 5 4 5 5 6 8 10 11 12 11 10 12
7 7 6 6 6 6 6 6 6 6 5 5 5 5 5 5 6 6 7 7 8 8 7 8 7 7 6 5 5 5 4 3 4 4 5 5 6 8 11 10 11 12 10
9 8 8 7 6 6 6 7 7 6 6 6 6 6 5 5 5 6 6 7 7 8 8 8 8 8 7 5 5 5 5 4 4 4 4 5 6 9 7 9 11 10 12
8 8 8 7 7 7 7 7 6 6 6 7 7 6 5 5 4 6 6 6 7 7 7 8 9 9 12 11 4 6 6 5 4 4 4 5 6 8 9 10 10 10 12
11 10 8 9 8 7 7 7 7 7 7 7 6 6 6 5 7 7 7 7 7 6 6 6 7 7 8 11 11 14 12 7 6 4 5 6 7 8 8 9 9 11 8
9 9 10 10 10 10 9 9 10 10 9 7 7 7 8 8 11 10 8 6 6 6 6 5 5 5 4 6 9 8 11 12 11 6 5 6 7 9 10 11 10 10 10
9 9 9 10 9 10 10 10 10 9 9 9 8 7 7 7 11 11 10 8 7 6 6 5 5 6 7 5 5 5 6 7 8 5 6 6 7 9 9 9 9 11 10
9 10 11 11 11 11 11 11 9 9 9 8 8 8 8 7 11 11 9 7 7 7 6 5 5 6 8 6 5 5 4 5 5 8 8 8 9 11 11 7 7 9 8
9 9 10 10 10 11 11 10 9 9 8 7 8 7 7 9 9 9 7 5 7 6 6 6 7 6 8 7 5 4 3 4 5 5 5 5 7 7 10 8 7 7 8
6 7 9 10 10 11 11 10 9 9 9 8 8 7 6 7 9 9 8 6 6 6 5 4 4 5 7 8 7 5 5 3 5 3 3 4 4 5 6 7 7 7 6
7 7 8 8 8 8 10 9 10 10 11 9 8 7 5 5 9 11 8 7 9 6 6 4 4 6 6 6 6 8 7 3 3 3 4 4 5 6 7 8 8 7 7
7 8 8 9 9 10 11 12 11 10 8 8 7 7 6 5 6 13 12 10 10 7 5 7 9 7 6 6 7 6 4 3 3 3 3 4 4 5 8 7 8 9 9
8 9 9 10 11 10 9 9 9 9 8 8 8 7 6 6 6 6 8 7 9 7 9 5 5 6 7 5 2 2 2 3 3 3 3 4 4 4 5 5 6 7 8
8 9 10 9 10 9 9 9 9 8 9 9 7 7 9 9 8 10 9 7 6 7 7 3 3 2 3 2 1 1 1 1 2 2 3 4 4 4 4 5 4 6 7
10 9 9 8 9 8 8 7 12 11 15 15 12 10 6 8 16 15 12 11 12 15 3 3 3 3 3 3 3 2 2 2 2 3 3 3 4 4 5 5 5 6 7
9 10 8 9 9 9 8 8 8 9 15 13 14 15 14 13 17 17 15 14 16 10 2 3 3 3 3 4 3 3 3 2 1 4 3 3 3 4 4 5 5 5 7
10 13 9 9 9 8 8 8 7 9 9 7 12 13 16 17 16 16 17 12 7 2 3 4 4 4 4 4 4 4 4 3 4 4 4 3 3 4 4 5 5 6 7
10 9 9 8 8 9 8 9 8 9 8 8 3 12 10 17 15 15 15 6 7 6 5 5 4 4 4 4 4 4 4 5 4 4 4 4 3 3 4 4 5 7 7
10 11 10 9 9 9 9 9 9 9 9 9 9 9 5 3 8 8 6 6 6 5 5 5 4 4 5 5 5 4 5 5 5 5 5 4 4 4 5 5 5 6 7
8 9 11 8 8 9 9 9 9 9 9 9 9 8 13 9 8 8 7 6 6 6 6 5 5 5 5 5 5 6 6 6 6 5 4 4 3 4 4 4 6 6 7
8 9 9 9 8 9 9 9 9 9 9 9 8 8 19 7 7 7 7 7 7 6 5 5 5 6 6 7 7 7 7 7 6 6 5 4 4 5 4 5 5 6 7
9 10 9 8 8 9 9 9 9 10 9 9 8 8 8 9 8 8 8 7 6 6 6 6 6 6 6 6 7 7 7 7 6 6 5 5 5 5 4 5 5 6 7
9 10 10 9 9 9 9 9 9 9 10 9 9 8 8 9 9 9 7 7 6 6 6 6 7 8 7 8 7 7 7 6 5 5 7 5 5 4 5 5 6 7 8
9 9 9 10 9 9 9 9 9 9 9 9 8 8 8 8 8 8 7 6 6 6 7 7 7 9 12 12 10 11 10 11 9 7 5 6 7 6 5 5 6 7 9
9 10 9 8 9 9 9 9 9 9 9 9 8 8 8 8 8 7 7 7 6 7 8 7 9 13 12 10 12 12 11 12 11 12 7 6 6 6 5 7 8 7 9
Wind_Direction
158 146 141 128 117 110 104 98 90 90 83 79 75 76 77 80 82 91 94 97 94 91 81 77 70 59 59 51 44 35 35 7 331 31 9 8 0 353 351 350 346 343 342
171 166 157 145 136 124 118 114 115 107 90 91 94 92 84 80 79 82 86 84 85 82 75 73 67 62 64 51 47 50 36 32 353 337 349 2 349 356 344 346 346 342 336
176 174 167 161 159 152 146 142 137 133 126 116 98 85 82 79 81 79 86 86 82 79 77 70 59 54 52 51 45 43 27 26 17 341 345 351 344 357 346 344 342 334 332
184 183 180 175 168 164 154 153 152 147 133 118 108 109 107 102 98 98 97 97 93 86 79 71 62 56 46 49 48 33 25 30 14 6 358 346 350 352 344 344 336 341 328
185 187 190 175 170 166 164 158 148 145 136 132 130 124 121 115 111 119 112 110 109 102 92 79 68 66 64 48 46 44 27 28 24 8 4 354 359 349 352 340 329 332 317
192 196 184 175 171 172 163 158 152 147 147 145 138 128 120 104 116 122 132 124 117 115 107 100 90 86 77 72 69 61 46 27 39 11 10 0 354 349 343 342 337 347 342
196 194 187 183 178 175 170 169 166 163 160 157 150 144 133 128 129 124 120 119 122 117 116 114 94 92 78 94 76 78 57 50 42 21 13 9 343 350 342 337 339 326 308
197 199 190 182 178 173 174 177 172 167 166 161 160 150 136 126 131 129 133 127 120 111 105 104 103 83 66 81 84 78 62 44 32 21 17 11 0 348 346 333 325 312 306
198 197 190 184 178 176 179 179 176 172 168 164 159 151 142 137 147 145 144 136 127 115 101 100 92 80 77 74 79 78 74 38 30 27 28 24 15 4 2 336 346 338 335
200 196 187 183 176 180 181 176 172 173 166 154 156 157 147 135 150 154 153 141 145 137 118 101 88 78 76 77 72 70 71 27 5 11 20 20 12 1 5 4 346 341 341
176 176 179 177 174 176 169 169 167 169 164 166 165 154 138 144 141 148 152 167 162 150 141 123 104 80 86 73 71 60 50 8 4 2 11 19 7 1 358 354 350 339 332
177 178 175 169 171 166 162 163 165 161 163 168 176 166 155 149 142 126 143 158 153 146 138 137 121 98 80 81 75 57 48 26 5 11 17 16 357 350 345 340 335 330 316
164 169 166 166 167 167 169 171 171 170 168 169 184 181 173 167 153 141 126 131 131 123 136 143 119 108 93 68 66 58 29 11 8 22 10 1 343 330 321 331 332 330 319
169 172 170 171 173 173 176 179 174 175 168 172 186 186 174 175 155 143 134 135 129 128 117 111 129 106 93 104 63 49 25 17 16 5 343 326 313 327 329 343 329 335 320
178 178 181 183 182 179 181 179 182 184 182 172 179 175 177 187 183 167 158 160 154 150 125 138 161 165 175 159 171 221 204 337 339 337 310 315 323 332 333 340 330 328 322
183 183 182 172 179 179 176 175 188 178 188 185 177 177 186 187 173 162 155 146 155 145 155 171 183 194 209 213 227 214 220 237 278 282 285 300 314 324 330 326 326 326 319
182 175 171 175 173 169 172 170 163 179 183 180 180 185 180 174 177 176 166 169 160 157 173 182 209 195 205 216 230 238 249 231 258 260 275 282 296 302 307 320 326 323 317
182 180 175 174 172 169 169 168 164 168 162 160 179 179 182 185 187 184 178 168 152 152 196 213 214 206 213 221 220 227 229 236 244 253 260 266 276 293 306 310 318 317 314
181 180 177 172 170 166 164 166 167 162 160 152 148 181 181 188 190 189 185 177 199 205 200 214 215 212 216 220 226 227 236 245 252 254 253 250 255 268 284 294 299 301 297
186 180 172 167 162 166 167 167 167 169 166 169 176 182 167 171 195 188 185 183 197 212 204 213 206 209 216 219 219 221 229 230 238 237 245 248 252 254 274 289 291 302 302
173 168 169 166 170 173 173 176 174 172 175 177 184 180 180 186 192 201 196 201 210 210 210 214 211 213 213 214 216 219 228 243 237 243 249 244 240 258 251 274 284 281 287
169 164 169 172 171 176 180 177 176 180 180 180 181 190 193 195 206 211 212 214 214 216 213 213 215 215 212 209 210 216 222 229 232 228 239 238 239 245 251 266 277 282 290
169 169 176 176 179 171 172 177 180 183 184 189 185 185 200 209 210 216 218 218 214 210 203 207 217 220 217 215 217 220 223 226 226 220 225 233 234 248 247 268 279 287 293
175 178 179 178 177 181 183 184 188 189 187 190 192 197 201 209 216 217 215 212 211 212 208 206 215 220 222 217 215 219 227 234 220 218 219 234 244 236 245 256 267 275 284
179 181 182 178 179 184 180 186 191 192 194 196 199 203 206 211 216 219 217 212 213 216 219 212 216 222 225 221 221 219 219 222 212 209 206 222 237 244 247 256 271 282 283
184 185 182 177 182 184 186 187 191 192 196 199 204 205 206 210 217 217 215 214 216 221 225 223 222 222 224 227 227 224 218 216 216 208 205 213 224 233 235 247 260 271 285